Lexington Weather

Lexington, Massachusetts, USA

40°F
3/2/2024 8:59am 
  • Lexington Conditions: Overcast
  • Temperature: 39.6°F / 4.2°CWarmer 1.8°F than last hour.
  • Dew Point: 33.6°FIncreased 1.1°Fsince last hour.
  • Relative Humidity: 79%Decreased 2.0% since last hour.
  • Wind: Calm, 10-min avg: Calm, gust: None
  • Barometer: 30.45 in Steady
  • Visibility: 10 miles
  • Rain Today: 0.00 in
  •   

Regional Weather Roundup
for Boston, MA

        
000
ASUS41 KBOX 291310
RWRBOX

REGIONAL WEATHER ROUNDUP
NATIONAL WEATHER SERVICE BOSTON/NORTON MA
800 AM EST THU FEB 29 2024

NOTE:  "FAIR" INDICATES FEW OR NO CLOUDS BELOW 12,000 FEET WITH NO 
SIGNIFICANT WEATHER AND/OR OBSTRUCTIONS TO VISIBILITY.

MAZALL-291400-
EASTERN MASSACHUSETTS
  
CITY           SKY/WX    TMP DP  RH WIND       PRES   REMARKS
BOSTON         FAIR      28   6  39 W15G25    30.10R WCI  16          
BEVERLY        FAIR      26   4  38 NW18G32   30.07R WCI  13          
LAWRENCE       FAIR      26   3  37 W10G29    30.09R WCI  16          
BEDFORD        FAIR      26   5  40 W17G24    30.09R WCI  13          
NORWOOD        FAIR      30   6  36 W13G29    30.12R WCI  20          
MARSHFIELD     FAIR      28   5  37 W16G28    30.10R WCI  17          
PLYMOUTH       FAIR      29   8  41 W17G32    30.10R WCI  17          
TAUNTON        FAIR      31   7  36 NW7G24    30.12R WCI  24          
NEW BEDFORD    FAIR      30  10  43 NW10G26   30.13R WCI  21          
$$

MAZALL-291400-
CAPE COD AND THE ISLANDS
  
CITY           SKY/WX    TMP DP  RH WIND       PRES   REMARKS
FALMOUTH       SUNNY     28   7  40 SW17G29   30.11R WCI  16          
HYANNIS        FAIR      29   6  38 NW17G32   30.08R WCI  17          
CHATHAM        FAIR      31   9  39 NW16G35   30.09R WCI  20          
PROVINCETOWN   FAIR      30  13  49 NW28G38   30.09R WCI  15          
NANTUCKET      FAIR      31  13  47 W20G40    30.12R WCI  19          
MARTHAS VNYRD  FAIR      31  11  43 NW13G23   30.13R WCI  21          
$$
 
MAZALL-291400-
CENTRAL AND WESTERN MASSACHUSETTS
  
CITY           SKY/WX    TMP DP  RH WIND       PRES   REMARKS
WORCESTER      FAIR      23   7  50 NW23G35   30.05R WCI   7          
FITCHBURG      FAIR      26   6  42 NW15G28   30.10R WCI  14          
ORANGE         FAIR      24   5  44 W13G30    30.11R WCI  12          
SPRINGFIELD    MOSUNNY   26   7  43 NW14      30.12R WCI  15          
WESTFIELD      MOSUNNY   25  10  54 NW16G25   30.15R WCI  12          
NORTH ADAMS    CLOUDY    23   7  50 W13G26    30.12R WCI  11          
PITTSFIELD     CLOUDY    20   8  60 NW13G23   30.08R WCI   7          
$$
 
RIZALL-291400-
RHODE ISLAND
  
CITY           SKY/WX    TMP DP  RH WIND       PRES   REMARKS
PROVIDENCE     FAIR      28  11  48 W12G26    30.15R WCI  18          
NEWPORT        FAIR      28  11  48 W15G33    30.14R WCI  16          
BLOCK ISLAND   FAIR      30  17  58 NW12G18   30.18R WCI  20          
SMITHFIELD     PTSUNNY   27  12  53 NW18      30.12R WCI  14          
WESTERLY       FAIR      30  14  51 VRB7      30.17R WCI  23          
$$
 
CTZALL-291400-
CONNECTICUT
  
CITY           SKY/WX    TMP DP  RH WIND       PRES   REMARKS
BRADLEY INTL   FAIR      28  13  53 NW10      30.16R WCI  19          
HARTFORD       FAIR      30  14  51 N12G21    30.17R WCI  20          
PLAINVILLE     FAIR      29  12  49 VRB5      30.16R WCI  23          
BRIDGEPORT     FAIR      32  12  43 W16G28    30.20R WCI  21          
DANBURY        FAIR      30   8  39 NW17G31   30.19R WCI  18          
GROTON         FAIR      32  16  51 NW12      30.17R WCI  23          
NEW HAVEN      FAIR      33  13  43 W10G21    30.19R WCI  25          
CHESTER        FAIR      30   7  37 W8G21     30.15R WCI  23          
MERIDEN        FAIR      31   6  35 NW15G22   30.17R WCI  20          
WILLIMANTIC    FAIR      27  12  53 NW7G20    30.15R WCI  19          
OXFORD         FAIR      27  12  53 W14G22    30.15R WCI  16          
$$

MEZ002-015-021-024-NHZ003-005-008-011-012-014-VTZ005-008-291400-
NORTHERN NEW ENGLAND
  
CITY           SKY/WX    TMP DP  RH WIND       PRES   REMARKS
PORTLAND ME    FAIR      23   7  50 W13G24    30.00R WCI  11          
BANGOR ME      FAIR      15   5  64 NW10G22   29.90R WCI   2          
CONCORD NH     FAIR      24   0  35 NW18G29   30.04R WCI  10          
MANCHESTER NH  FAIR      26   0  32 W25G40    30.05R WCI  11          
NASHUA NH      FAIR      25   3  38 NW22G30   30.09R WCI  10          
PORTSMOUTH NH  SUNNY     26   0  32 W17G26    30.04R WCI  13          
JAFFREY NH     FAIR      23   2  40 NW14G25   30.04R WCI  11          
KEENE NH       FAIR      23   4  44 W17G24    30.09R WCI   9          
BURLINGTON VT  FAIR      18   1  47 W12G30    30.09R WCI   5          
MT. WASHINGTON BLWGSNOW -13 -13 100 W98G114     N/A  VSB 1/16WCI -56  
$$

NYZ052-076-291400-
EASTERN NEW YORK
  
CITY           SKY/WX    TMP DP  RH WIND       PRES   REMARKS
ALBANY         PTSUNNY   24   9  52 W15G22    30.19R WCI  11          
NEW YORK CITY  FAIR      32  11  41 NW21G32   30.25R WCI  20          
$$
 
ANZALL-291400-
MARINE OBSERVATIONS
  
STATION/POSITION TIME  TEMP    WIND        PRES    VSBY  WAVE
                       AIR SEA DIR/SP/G                  HT/PER
                 (UTC) (F)     (DEG/KT/KT) (MB)    (MI)  (FT/S)
BOSTON BUOY      1250   29 40  290/ 23/ 31 1018.9R         5/ 5
BUZZARDS BAY     1200   30     300/ 29/ 31 1019.6R
NANTUCKET SOUND  1250   31 38  300/ 21/ 29 1019.5R         3/ 4
MASS BAY-STELLWA NOT AVBL
ISLE OF SHOALS   1200   26     290/ 29/ 32 1014.4R
S OF BLOCK IS    1256      42                N/A          10/11
$$

......................KEY.........................
  SKY/WX - SKY CONDITION/PRESENT WEATHER
  TMP    - TEMPERATURE IN FAHRENHEIT
  DWPT   - DEWPOINT IN FAHRENHEIT
  RH     - RELATIVE HUMIDITY IN PERCENT
  WIND   - DIRECTION AND SPEED IN MPH
  PRES   - MEAN SEA LEVEL PRESSURE IN INCHES OF HG
  WCI    - WIND CHILL INDEX
  VSB    - VISIBILITY IN MILES
  HX     - HEAT INDEX
  TC     - TEMPERATURE IN CELSIUS
  VRB    - VARIABLE WIND DIRECTION
  N/A    - NOT AVAILABLE
  
      

Other recent Regional Weather Roundups

Sat Mar 2, 8:10am EST

Sat Mar 2, 7:10am EST

Sat Mar 2, 6:10am EST

Sat Mar 2, 5:10am EST

Sat Mar 2, 4:10am EST

Sat Mar 2, 3:10am EST

Sat Mar 2, 2:10am EST

Sat Mar 2, 1:10am EST

Sat Mar 2, 12:10am EST

Fri Mar 1, 11:10pm EST

Fri Mar 1, 10:10pm EST

Fri Mar 1, 9:10pm EST

Fri Mar 1, 8:10pm EST

Fri Mar 1, 7:10pm EST

Fri Mar 1, 6:10pm EST

Fri Mar 1, 5:10pm EST

Fri Mar 1, 4:10pm EST

Fri Mar 1, 3:10pm EST

Fri Mar 1, 2:10pm EST

Fri Mar 1, 1:10pm EST

Fri Mar 1, 12:10pm EST

Fri Mar 1, 11:10am EST

Fri Mar 1, 10:10am EST

Fri Mar 1, 9:10am EST

Fri Mar 1, 8:10am EST

Fri Mar 1, 7:10am EST

Fri Mar 1, 6:10am EST

Fri Mar 1, 5:10am EST

Fri Mar 1, 4:10am EST

Fri Mar 1, 3:10am EST

Fri Mar 1, 2:10am EST

Fri Mar 1, 1:10am EST

Fri Mar 1, 12:10am EST

Thu Feb 29, 11:10pm EST

Thu Feb 29, 10:10pm EST

Thu Feb 29, 9:10pm EST

Thu Feb 29, 8:10pm EST

Thu Feb 29, 7:10pm EST

Thu Feb 29, 6:10pm EST

Thu Feb 29, 5:10pm EST

Thu Feb 29, 4:10pm EST

Thu Feb 29, 3:10pm EST

Thu Feb 29, 2:10pm EST

Thu Feb 29, 1:10pm EST

Thu Feb 29, 12:10pm EST

Thu Feb 29, 11:10am EST

Thu Feb 29, 10:10am EST

Thu Feb 29, 9:10am EST

Thu Feb 29, 7:10am EST

Thu Feb 29, 6:10am EST

Thu Feb 29, 5:10am EST

Thu Feb 29, 4:10am EST

Thu Feb 29, 3:10am EST

Thu Feb 29, 2:10am EST

Thu Feb 29, 1:10am EST

Thu Feb 29, 12:10am EST

Wed Feb 28, 11:10pm EST

Wed Feb 28, 10:10pm EST

Wed Feb 28, 9:10pm EST

Wed Feb 28, 8:10pm EST

Wed Feb 28, 7:10pm EST

Wed Feb 28, 6:10pm EST

Wed Feb 28, 5:10pm EST

Wed Feb 28, 4:10pm EST

Wed Feb 28, 3:10pm EST

Wed Feb 28, 2:10pm EST

Wed Feb 28, 1:10pm EST

Wed Feb 28, 12:10pm EST

Wed Feb 28, 11:10am EST

Wed Feb 28, 10:10am EST

Wed Feb 28, 9:10am EST

Wed Feb 28, 8:10am EST

Wed Feb 28, 7:10am EST

Wed Feb 28, 6:10am EST

Wed Feb 28, 5:10am EST

Wed Feb 28, 4:10am EST

Wed Feb 28, 3:10am EST

Wed Feb 28, 2:10am EST

Wed Feb 28, 1:10am EST

Wed Feb 28, 12:10am EST

Tue Feb 27, 11:10pm EST

Tue Feb 27, 10:10pm EST

Tue Feb 27, 9:10pm EST

Tue Feb 27, 8:10pm EST

Tue Feb 27, 7:10pm EST

Tue Feb 27, 6:10pm EST

Tue Feb 27, 5:10pm EST

Tue Feb 27, 4:10pm EST

Tue Feb 27, 3:10pm EST

Tue Feb 27, 2:10pm EST

Tue Feb 27, 1:10pm EST

Tue Feb 27, 12:10pm EST

Tue Feb 27, 11:10am EST

Tue Feb 27, 10:10am EST

Tue Feb 27, 9:10am EST

Tue Feb 27, 8:10am EST

Tue Feb 27, 7:10am EST

Tue Feb 27, 6:10am EST

Tue Feb 27, 5:10am EST

Tue Feb 27, 4:10am EST

Tue Feb 27, 3:10am EST

Tue Feb 27, 2:10am EST

Tue Feb 27, 1:10am EST

Tue Feb 27, 12:10am EST

Mon Feb 26, 11:10pm EST

Mon Feb 26, 10:10pm EST

Mon Feb 26, 9:10pm EST

Mon Feb 26, 8:10pm EST

Mon Feb 26, 7:10pm EST

Mon Feb 26, 6:10pm EST

Mon Feb 26, 5:10pm EST

Mon Feb 26, 4:10pm EST

Mon Feb 26, 3:10pm EST

Mon Feb 26, 2:10pm EST

Mon Feb 26, 1:10pm EST

Mon Feb 26, 12:10pm EST

Mon Feb 26, 11:10am EST

Mon Feb 26, 10:10am EST

Mon Feb 26, 9:10am EST

Mon Feb 26, 8:10am EST

Mon Feb 26, 7:10am EST

Mon Feb 26, 6:10am EST

Mon Feb 26, 5:10am EST

Mon Feb 26, 4:10am EST

Mon Feb 26, 3:10am EST

Mon Feb 26, 2:10am EST

Mon Feb 26, 1:10am EST

Mon Feb 26, 12:10am EST

Sun Feb 25, 11:10pm EST

Sun Feb 25, 10:10pm EST

Sun Feb 25, 9:10pm EST

Sun Feb 25, 8:10pm EST

Sun Feb 25, 7:10pm EST

Sun Feb 25, 6:10pm EST

Sun Feb 25, 5:10pm EST

Sun Feb 25, 4:10pm EST

Sun Feb 25, 3:10pm EST

Sun Feb 25, 2:10pm EST

Sun Feb 25, 1:10pm EST

Sun Feb 25, 12:10pm EST

Sun Feb 25, 11:10am EST

Sun Feb 25, 10:10am EST

Sun Feb 25, 9:10am EST

Sun Feb 25, 8:10am EST

Sun Feb 25, 7:10am EST

Sun Feb 25, 6:10am EST

Sun Feb 25, 5:10am EST

Sun Feb 25, 4:10am EST

Sun Feb 25, 3:10am EST

Sun Feb 25, 2:10am EST

Sun Feb 25, 1:10am EST

Sun Feb 25, 12:10am EST

Sat Feb 24, 11:10pm EST

Sat Feb 24, 10:10pm EST

Sat Feb 24, 9:10pm EST

Sat Feb 24, 8:10pm EST

Sat Feb 24, 7:10pm EST

Sat Feb 24, 6:10pm EST

Sat Feb 24, 5:10pm EST

Sat Feb 24, 4:10pm EST

Sat Feb 24, 3:10pm EST

Sat Feb 24, 2:10pm EST

Sat Feb 24, 1:10pm EST

Sat Feb 24, 12:10pm EST

Sat Feb 24, 11:10am EST

Sat Feb 24, 10:10am EST

Sat Feb 24, 9:10am EST